Location: DARK SKY Beskydy - Park tmavé oblohy, www.darkskybeskydy.cz
(49.4926°N, 18.5016°E)
Time: 22:56:08
(UTC+02:00)

ACS3 Solar Sail - Pass Details

Date: 20 June 2024
Orbit: 992 x 1023 km, 97.4° (Epoch: 12 July)

Event Time Altitude Azimuth Distance (km) Brightness Sun altitude
Exits shadow 22:06:04 - 164° (SSE) 2,923 6.7 -8.7°
Reaches altitude 10° 22:06:29 10° 164° (SSE) 2,763 6.6 -8.7°
Maximum altitude 22:12:44 89° 78° (ENE) 1,003 4.9 -9.3°
Drops below altitude 10° 22:18:59 10° 347° (NNW) 2,768 8.4 -9.9°
Sets 22:21:28 0° 348° (NNW) 3,720 9.3 -10.1°
